Location: Kuppenheim
(48.8299°N, 8.2568°E)
Time: 09:56:47
(UTC+00:00)

CZ-4 R/B - Pass Details

Date: 20 June 2021
Orbit: 682 x 752 km, 98.5° (Epoch: 03 August)

Event Time Altitude Azimuth Distance (km) Brightness Sun altitude
Rises 00:43:59 0° 13° (NNE) 3,058 9.0 -15.8°
Reaches altitude 10° 00:46:13 10° 12° (NNE) 2,140 7.7 -15.7°
Maximum altitude 00:50:53 78° 287° (WNW) 709 3.8 -15.4°
Enters shadow 00:53:35 25° 204° (SSW) 1,370 4.7 -15.3°
